N5DUP Weather Reports


Display with metric or nautical units.
time (UTC)temp
F
wind
direction
speed
MPH
gust
MPH
rain 1hr
in
rain 24hr
in
rain mn
in
humidity
%
barometer
mb
20260901130327 75 192 3.0 12.0 0.00 0.00 0.00 63 1017.2
20260901124812 75 192 5.0 11.0 0.00 0.00 0.00 63 1017.1
20260901123311 74 165 5.0 11.0 0.00 0.00 0.00 63 1017.0
20260901121821 74 184 4.0 10.0 0.00 0.00 0.00 63 1016.7
20260901120312 74 178 5.0 12.0 0.00 0.00 0.00 63 1016.6
20260901114825 75 189 4.0 8.0 0.00 0.00 0.00 62 1016.6
20260901113319 75 186 4.0 7.0 0.00 0.00 0.00 62 1016.5
20260901111811 75 183 4.0 10.0 0.00 0.00 0.00 61 1016.4
20260901110326 76 176 5.0 8.0 0.00 0.00 0.00 60 1016.4
20260901104817 76 181 5.0 8.0 0.00 0.00 0.00 59 1016.3
20260901103312 76 175 6.0 10.0 0.00 0.00 0.00 59 1016.1
20260901101809 76 183 5.0 9.0 0.00 0.00 0.00 58 1016.2
20260901100339 76 182 3.0 8.0 0.00 0.00 0.00 57 1016.1
20260901094813 76 200 4.0 9.0 0.00 0.00 0.00 56 1016.1
20260901093308 77 168 4.0 7.0 0.00 0.00 0.00 56 1015.9
20260901091841 77 184 4.0 10.0 0.00 0.00 0.00 55 1016.0
20260901090308 77 181 3.0 7.0 0.00 0.00 0.00 54 1016.0
20260901084822 78 178 3.0 7.0 0.00 0.00 0.00 53 1016.0
20260901083306 78 180 3.0 10.0 0.00 0.00 0.00 52 1015.9
20260901081820 78 182 3.0 7.0 0.00 0.00 0.00 52 1015.9
20260901080330 78 188 3.0 6.0 0.00 0.00 0.00 51 1015.8
20260901074817 78 184 3.0 6.0 0.00 0.00 0.00 51 1015.7
20260901073306 79 175 2.0 5.0 0.00 0.00 0.00 50 1015.8
20260901071820 79 184 2.0 6.0 0.00 0.00 0.00 50 1015.9
20260901070330 79 168 3.0 6.0 0.00 0.00 0.00 49 1015.9
20260901064805 80 174 3.0 9.0 0.00 0.00 0.00 48 1015.9
20260901063316 80 180 2.0 6.0 0.00 0.00 0.00 48 1015.9
20260901061813 80 173 2.0 7.0 0.00 0.00 0.00 47 1015.8
20260901060304 80 173 2.0 6.0 0.00 0.00 0.00 47 1015.7
20260901054817 81 180 2.0 4.0 0.00 0.00 0.00 45 1015.6
20260901053312 81 180 1.0 5.0 0.00 0.00 0.00 44 1015.6
20260901051824 82 170 2.0 5.0 0.00 0.00 0.00 43 1015.4
20260901050315 83 178 2.0 5.0 0.00 0.00 0.00 42 1015.5
20260901044804 83 182 2.0 6.0 0.00 0.00 0.00 40 1015.5
20260901043316 84 180 3.0 7.0 0.00 0.00 0.00 39 1015.3
20260901041815 85 178 4.0 9.0 0.00 0.00 0.00 38 1015.2
20260901040303 85 186 4.0 12.0 0.00 0.00 0.00 37 1015.2
20260901034817 86 186 6.0 11.0 0.00 0.00 0.00 36 1015.0
20260901033314 87 182 4.0 8.0 0.00 0.00 0.00 35 1014.9
20260901031808 87 179 6.0 11.0 0.00 0.00 0.00 34 1014.7
20260901030307 88 191 3.0 9.0 0.00 0.00 0.00 33 1014.6
20260901024841 88 27 2.0 7.0 0.00 0.00 0.00 32 1014.3
20260901023319 88 200 3.0 8.0 0.00 0.00 0.00 31 1014.0
20260901021814 89 184 4.0 8.0 0.00 0.00 0.00 31 1013.8
20260901020332 89 221 2.0 8.0 0.00 0.00 0.00 30 1013.6
20260901014808 90 196 2.0 5.0 0.00 0.00 0.00 30 1013.6
20260901013317 90 88 1.0 4.0 0.00 0.00 0.00 28 1013.5
20260901011808 91 225 1.0 8.0 0.00 0.00 0.00 27 1013.3
20260901010326 92 200 2.0 6.0 0.00 0.00 0.00 26 1013.4
20260901004819 93 189 1.0 4.0 0.00 0.00 0.00 26 1013.2
20260901003330 94 169 1.0 6.0 0.00 0.00 0.00 26 1013.2
20260901001821 95 70 2.0 9.0 0.00 0.00 0.00 25 1013.2
20260901000314 95 87 3.0 10.0 0.00 0.00 0.00 24 1013.0
20260831234829 96 82 5.0 13.0 0.00 0.00 0.00 23 1012.9
20260831233319 97 67 3.0 12.0 0.00 0.00 0.00 23 1013.1
20260831231813 98 188 4.0 11.0 0.00 0.00 0.00 22 1013.0
20260831230303 98 186 4.0 8.0 0.00 0.00 0.00 22 1013.1
20260831224818 99 182 3.0 11.0 0.00 0.00 0.00 22 1013.2
20260831223333 99 217 4.0 11.0 0.00 0.00 0.00 22 1013.2
20260831221803 98 84 4.0 9.0 0.00 0.00 0.00 22 1013.2
20260831220317 99 165 5.0 11.0 0.00 0.00 0.00 22 1013.5
20260831214809 100 152 3.0 7.0 0.00 0.00 0.00 21 1013.7
20260831213306 99 192 4.0 11.0 0.00 0.00 0.00 22 1013.7
20260831211816 99 208 4.0 9.0 0.00 0.00 0.00 23 1013.9
20260831210311 98 217 2.0 12.0 0.00 0.00 0.00 23 1014.1
20260831204806 99 76 4.0 9.0 0.00 0.00 0.00 23 1014.4
20260831203306 99 205 4.0 8.0 0.00 0.00 0.00 24 1014.6
20260831201812 98 191 3.0 11.0 0.00 0.00 0.00 25 1014.7
20260831200305 98 166 7.0 13.0 0.00 0.00 0.00 26 1014.9
20260831194820 98 186 5.0 12.0 0.00 0.00 0.00 27 1015.2
20260831193336 97 158 5.0 9.0 0.00 0.00 0.00 28 1015.3
20260831191809 98 188 4.0 10.0 0.00 0.00 0.00 28 1015.4
20260831190304 97 183 4.0 13.0 0.00 0.00 0.00 28 1015.5
20260831184816 96 213 5.0 11.0 0.00 0.00 0.00 29 1015.8
20260831183309 95 217 6.0 9.0 0.00 0.00 0.00 30 1016.0
20260831181842 94 186 2.0 7.0 0.00 0.00 0.00 32 1016.2
20260831180315 95 208 5.0 8.0 0.00 0.00 0.00 33 1016.4
20260831174829 94 198 7.0 11.0 0.00 0.00 0.00 33 1016.6
20260831173305 93 216 3.0 11.0 0.00 0.00 0.00 36 1016.7
20260831171837 92 186 6.0 13.0 0.00 0.00 0.00 37 1016.8
20260831170310 92 227 5.0 10.0 0.00 0.00 0.00 37 1017.0
20260831164818 91 167 7.0 12.0 0.00 0.00 0.00 39 1016.9
20260831163329 90 233 6.0 15.0 0.00 0.00 0.00 40 1017.0
20260831161819 89 203 6.0 11.0 0.00 0.00 0.00 43 1016.9
20260831160313 88 190 4.0 10.0 0.00 0.00 0.00 46 1016.8
20260831154805 87 184 6.0 15.0 0.00 0.00 0.00 47 1016.7
20260831153316 86 199 6.0 14.0 0.00 0.00 0.00 50 1016.6
20260831151804 85 193 5.0 10.0 0.00 0.00 0.00 52 1016.6
20260831150317 84 186 6.0 15.0 0.00 0.00 0.00 55 1016.5
20260831144807 83 211 8.0 15.0 0.00 0.00 0.00 56 1016.5
20260831143339 82 197 6.0 9.0 0.00 0.00 0.00 58 1016.5
20260831141830 81 178 7.0 14.0 0.00 0.00 0.00 60 1016.5
20260831140317 80 200 4.0 10.0 0.00 0.00 0.00 62 1016.5
20260831134805 78 202 5.0 11.0 0.00 0.00 0.00 64 1016.3
20260831133318 77 169 5.0 12.0 0.00 0.00 0.00 67 1016.2
20260831131809 76 184 5.0 11.0 0.00 0.00 0.00 69 1016.1